Location: �clusier
(49.9361°N, 2.7869°E)
Time: 07:43:19
(UTC+00:00)

Cosmos 389 Rocket - Pass Details

Date: 16 June 2021
Orbit: 440 x 471 km, 81.1° (Epoch: 03 August)

Event Time Altitude Azimuth Distance (km) Brightness Sun altitude
Rises 21:56:36 0° 355° (N) 2,446 7.5 -12.5°
Reaches altitude 10° 21:58:49 10° 6° (N) 1,572 6.1 -12.7°
Maximum altitude 22:01:55 31° 71° (ENE) 802 3.6 -12.9°
Enters shadow 22:03:46 19° 122° (ESE) 1,133 3.9 -13.0°
